Time,TemperatureF,DewpointF,PressureIn,WindDirection,WindDirectionDegrees,WindSpeedMPH,WindSpeedGustMPH,Humidity,HourlyPrecipIn,Conditions,Clouds,dailyrainin,SoftwareType,DateUTC
2013-08-24 00:01:00,63.3,58.4,30.13,SSW,203,0.0,0.0,84,0.00,,,0.02,Wunderground v.1.15,2013-08-24 04:01:00,
2013-08-24 00:03:00,63.3,58.7,30.13,SSW,203,0.0,0.0,85,0.00,,,0.02,Wunderground v.1.15,2013-08-24 04:03:00,
2013-08-24 00:04:00,63.3,59.0,30.13,SSW,203,0.0,0.0,86,0.00,,,0.02,Wunderground v.1.15,2013-08-24 04:04:00,
2013-08-24 00:05:00,63.2,58.3,30.13,SSW,203,0.0,0.0,84,0.00,,,0.02,Wunderground v.1.15,2013-08-24 04:05:00,
2013-08-24 00:06:00,63.2,58.6,30.13,SSW,203,0.0,0.0,85,0.00,,,0.02,Wunderground v.1.15,2013-08-24 04:06:00,
2013-08-24 00:11:00,63.1,58.8,30.13,SE,130,0.0,0.0,86,0.00,,,0.00,Wunderground v.1.15,2013-08-24 04:11:00,
2013-08-24 00:17:00,62.9,59.0,30.14,SE,130,0.0,0.0,87,0.00,,,0.00,Wunderground v.1.15,2013-08-24 04:17:00,
2013-08-24 00:22:00,62.7,58.5,30.14,SE,130,0.0,0.0,86,0.00,,,0.00,Wunderground v.1.15,2013-08-24 04:22:00,
2013-08-24 00:27:00,62.6,58.4,30.14,WSW,248,0.0,0.0,86,0.00,,,0.00,Wunderground v.1.15,2013-08-24 04:27:00,
2013-08-24 00:32:00,62.7,57.8,30.14,ESE,114,0.0,0.0,84,0.00,,,0.00,Wunderground v.1.15,2013-08-24 04:32:00,
2013-08-24 00:37:00,62.8,57.9,30.15,SE,133,0.0,0.0,84,0.00,,,0.00,Wunderground v.1.15,2013-08-24 04:37:00,
2013-08-24 00:43:00,62.7,58.1,30.15,SE,133,0.0,0.0,85,0.00,,,0.00,Wunderground v.1.15,2013-08-24 04:43:00,
2013-08-24 00:48:00,62.5,57.6,30.15,SE,133,0.0,0.0,84,0.00,,,0.00,Wunderground v.1.15,2013-08-24 04:48:00,
2013-08-24 00:53:00,62.5,58.3,30.15,SE,133,0.0,0.0,86,0.00,,,0.00,Wunderground v.1.15,2013-08-24 04:53:00,
2013-08-24 00:58:00,62.3,58.1,30.15,SE,133,0.0,0.0,86,0.00,,,0.00,Wunderground v.1.15,2013-08-24 04:58:00,
2013-08-24 01:04:00,62.1,57.9,30.15,NNW,330,0.0,0.0,86,0.00,,,0.00,Wunderground v.1.15,2013-08-24 05:04:00,
2013-08-24 01:10:00,62.0,57.8,30.15,NW,321,0.0,0.0,86,0.00,,,0.00,Wunderground v.1.15,2013-08-24 05:10:00,
2013-08-24 01:15:00,61.9,57.7,30.15,NW,321,0.0,0.0,86,0.00,,,0.00,Wunderground v.1.15,2013-08-24 05:15:00,
2013-08-24 01:20:00,61.7,57.8,30.15,NW,321,0.0,0.0,87,0.00,,,0.00,Wunderground v.1.15,2013-08-24 05:20:00,
2013-08-24 01:25:00,61.5,57.3,30.15,NW,321,0.0,0.0,86,0.00,,,0.00,Wunderground v.1.15,2013-08-24 05:25:00,
2013-08-24 01:31:00,61.4,57.2,30.15,ESE,119,0.0,0.0,86,0.00,,,0.00,Wunderground v.1.15,2013-08-24 05:31:00,
2013-08-24 01:36:00,61.2,57.6,30.15,ESE,119,0.0,0.0,88,0.00,,,0.00,Wunderground v.1.15,2013-08-24 05:36:00,
2013-08-24 01:42:00,61.0,57.1,30.15,ESE,119,0.0,0.0,87,0.00,,,0.00,Wunderground v.1.15,2013-08-24 05:42:00,
2013-08-24 01:47:00,60.9,57.0,30.15,ESE,119,0.0,0.0,87,0.00,,,0.00,Wunderground v.1.15,2013-08-24 05:47:00,
2013-08-24 01:52:00,60.9,57.3,30.15,ESE,119,0.0,0.0,88,0.00,,,0.00,Wunderground v.1.15,2013-08-24 05:52:00,
2013-08-24 01:58:00,60.7,57.1,30.15,ESE,119,0.0,0.0,88,0.00,,,0.00,Wunderground v.1.15,2013-08-24 05:58:00,
2013-08-24 02:03:00,60.6,57.3,30.15,ESE,119,0.0,0.0,89,0.00,,,0.00,Wunderground v.1.15,2013-08-24 06:03:00,
2013-08-24 02:08:00,60.4,57.1,30.15,ESE,119,0.0,0.0,89,0.00,,,0.00,Wunderground v.1.15,2013-08-24 06:08:00,
2013-08-24 02:13:00,60.1,56.8,30.15,ESE,119,0.0,0.0,89,0.00,,,0.00,Wunderground v.1.15,2013-08-24 06:13:00,
2013-08-24 02:19:00,60.0,57.1,30.16,ESE,119,0.0,0.0,90,0.00,,,0.00,Wunderground v.1.15,2013-08-24 06:19:00,
2013-08-24 02:24:00,59.9,57.0,30.16,ESE,119,0.0,0.0,90,0.00,,,0.00,Wunderground v.1.15,2013-08-24 06:24:00,
2013-08-24 02:30:00,59.8,57.2,30.16,ESE,119,0.0,0.0,91,0.00,,,0.00,Wunderground v.1.15,2013-08-24 06:30:00,
2013-08-24 02:35:00,59.5,56.6,30.16,ESE,119,0.0,0.0,90,0.00,,,0.00,Wunderground v.1.15,2013-08-24 06:35:00,
2013-08-24 02:40:00,59.4,56.8,30.16,ESE,119,0.0,0.0,91,0.00,,,0.00,Wunderground v.1.15,2013-08-24 06:40:00,
2013-08-24 02:46:00,59.3,56.7,30.16,ESE,119,0.0,0.0,91,0.00,,,0.00,Wunderground v.1.15,2013-08-24 06:46:00,
2013-08-24 02:51:00,59.1,56.5,30.16,ESE,119,0.0,0.0,91,0.00,,,0.00,Wunderground v.1.15,2013-08-24 06:51:00,
2013-08-24 02:56:00,59.0,56.7,30.16,ESE,119,0.0,0.0,92,0.00,,,0.00,Wunderground v.1.15,2013-08-24 06:56:00,
2013-08-24 03:02:00,58.7,56.4,30.16,ESE,119,0.0,0.0,92,0.00,,,0.00,Wunderground v.1.15,2013-08-24 07:02:00,
2013-08-24 03:07:00,58.5,55.9,30.16,ESE,119,0.0,0.0,91,0.00,,,0.00,Wunderground v.1.15,2013-08-24 07:07:00,
2013-08-24 03:12:00,58.3,55.7,30.16,ESE,119,0.0,0.0,91,0.00,,,0.00,Wunderground v.1.15,2013-08-24 07:12:00,
2013-08-24 03:17:00,58.1,55.8,30.17,ESE,119,0.0,0.0,92,0.00,,,0.00,Wunderground v.1.15,2013-08-24 07:17:00,
2013-08-24 03:22:00,57.8,55.2,30.17,ESE,119,0.0,0.0,91,0.00,,,0.00,Wunderground v.1.15,2013-08-24 07:22:00,
2013-08-24 03:28:00,57.6,55.3,30.17,ESE,119,0.0,0.0,92,0.00,,,0.00,Wunderground v.1.15,2013-08-24 07:28:00,
2013-08-24 03:33:00,57.5,55.2,30.17,ESE,119,0.0,0.0,92,0.00,,,0.00,Wunderground v.1.15,2013-08-24 07:33:00,
2013-08-24 03:38:00,57.3,55.0,30.17,ESE,119,0.0,0.0,92,0.00,,,0.00,Wunderground v.1.15,2013-08-24 07:38:00,
2013-08-24 03:43:00,57.2,55.2,30.17,ESE,119,0.0,0.0,93,0.00,,,0.00,Wunderground v.1.15,2013-08-24 07:43:00,
2013-08-24 03:48:00,57.1,55.1,30.17,ESE,119,0.0,0.0,93,0.00,,,0.00,Wunderground v.1.15,2013-08-24 07:48:00,
2013-08-24 03:54:00,56.9,54.9,30.17,ESE,119,0.0,0.0,93,0.00,,,0.00,Wunderground v.1.15,2013-08-24 07:54:00,
2013-08-24 04:00:00,56.8,54.8,30.17,ESE,119,0.0,0.0,93,0.00,,,0.00,Wunderground v.1.15,2013-08-24 08:00:00,
2013-08-24 04:06:00,56.6,54.6,30.18,ESE,119,0.0,0.0,93,0.00,,,0.00,Wunderground v.1.15,2013-08-24 08:06:00,
2013-08-24 04:11:00,56.6,54.6,30.18,ESE,119,0.0,0.0,93,0.00,,,0.00,Wunderground v.1.15,2013-08-24 08:11:00,
2013-08-24 04:16:00,56.5,54.8,30.18,ESE,119,0.0,0.0,94,0.00,,,0.00,Wunderground v.1.15,2013-08-24 08:16:00,
2013-08-24 04:21:00,56.5,54.8,30.18,ESE,119,0.0,0.0,94,0.00,,,0.00,Wunderground v.1.15,2013-08-24 08:21:00,
2013-08-24 04:27:00,56.4,54.7,30.18,ESE,119,0.0,0.0,94,0.00,,,0.00,Wunderground v.1.15,2013-08-24 08:27:00,
2013-08-24 04:32:00,56.4,54.7,30.19,ESE,119,0.0,0.0,94,0.00,,,0.00,Wunderground v.1.15,2013-08-24 08:32:00,
2013-08-24 04:37:00,56.3,54.6,30.19,ESE,119,0.0,0.0,94,0.00,,,0.00,Wunderground v.1.15,2013-08-24 08:37:00,
2013-08-24 04:42:00,56.2,54.5,30.19,ESE,119,0.0,0.0,94,0.00,,,0.00,Wunderground v.1.15,2013-08-24 08:42:00,
2013-08-24 04:48:00,56.2,54.5,30.19,ESE,119,0.0,0.0,94,0.00,,,0.00,Wunderground v.1.15,2013-08-24 08:48:00,
2013-08-24 04:53:00,56.1,54.4,30.19,ESE,119,0.0,0.0,94,0.00,,,0.00,Wunderground v.1.15,2013-08-24 08:53:00,
2013-08-24 04:58:00,56.0,54.3,30.19,ESE,119,0.0,0.0,94,0.00,,,0.00,Wunderground v.1.15,2013-08-24 08:58:00,
2013-08-24 05:04:00,55.9,54.2,30.19,ESE,119,0.0,0.0,94,0.00,,,0.00,Wunderground v.1.15,2013-08-24 09:04:00,
2013-08-24 05:09:00,55.8,54.1,30.19,ESE,119,0.0,0.0,94,0.00,,,0.00,Wunderground v.1.15,2013-08-24 09:09:00,
2013-08-24 05:14:00,55.8,54.4,30.19,ESE,119,0.0,0.0,95,0.00,,,0.00,Wunderground v.1.15,2013-08-24 09:14:00,
2013-08-24 05:20:00,55.8,54.4,30.20,ESE,119,0.0,0.0,95,0.00,,,0.00,Wunderground v.1.15,2013-08-24 09:20:00,
2013-08-24 05:25:00,55.8,54.4,30.20,ESE,119,0.0,0.0,95,0.00,,,0.00,Wunderground v.1.15,2013-08-24 09:25:00,
2013-08-24 05:30:00,55.7,54.3,30.20,ESE,119,0.0,0.0,95,0.00,,,0.00,Wunderground v.1.15,2013-08-24 09:30:00,
2013-08-24 05:35:00,55.6,54.2,30.20,ESE,119,0.0,0.0,95,0.00,,,0.00,Wunderground v.1.15,2013-08-24 09:35:00,
2013-08-24 05:40:00,55.5,53.8,30.20,ESE,119,0.0,0.0,94,0.00,,,0.00,Wunderground v.1.15,2013-08-24 09:40:00,
2013-08-24 05:45:00,55.4,54.0,30.20,ESE,119,0.0,0.0,95,0.00,,,0.00,Wunderground v.1.15,2013-08-24 09:45:00,
2013-08-24 05:50:00,55.4,54.0,30.20,ESE,119,0.0,0.0,95,0.00,,,0.00,Wunderground v.1.15,2013-08-24 09:50:00,
2013-08-24 05:55:00,55.3,53.9,30.20,ESE,119,0.0,0.0,95,0.00,,,0.00,Wunderground v.1.15,2013-08-24 09:55:00,
2013-08-24 06:01:00,55.3,53.9,30.21,ESE,119,0.0,0.0,95,0.00,,,0.00,Wunderground v.1.15,2013-08-24 10:01:00,
2013-08-24 06:07:00,55.2,53.8,30.21,ESE,119,0.0,0.0,95,0.00,,,0.00,Wunderground v.1.15,2013-08-24 10:07:00,
2013-08-24 06:12:00,55.1,53.7,30.21,ESE,119,0.0,0.0,95,0.00,,,0.00,Wunderground v.1.15,2013-08-24 10:12:00,
2013-08-24 06:17:00,55.1,53.7,30.21,ESE,119,0.0,0.0,95,0.00,,,0.00,Wunderground v.1.15,2013-08-24 10:17:00,
2013-08-24 06:22:00,55.0,53.6,30.22,ESE,119,0.0,0.0,95,0.00,,,0.00,Wunderground v.1.15,2013-08-24 10:22:00,
2013-08-24 06:27:00,55.0,53.6,30.22,ESE,119,0.0,0.0,95,0.00,,,0.00,Wunderground v.1.15,2013-08-24 10:27:00,
2013-08-24 06:33:00,54.9,53.5,30.22,ESE,119,0.0,0.0,95,0.00,,,0.00,Wunderground v.1.15,2013-08-24 10:33:00,
2013-08-24 06:38:00,54.9,53.5,30.22,ESE,119,0.0,0.0,95,0.00,,,0.00,Wunderground v.1.15,2013-08-24 10:38:00,
2013-08-24 06:43:00,54.9,53.5,30.22,ESE,119,0.0,0.0,95,0.00,,,0.00,Wunderground v.1.15,2013-08-24 10:43:00,
2013-08-24 06:48:00,54.9,53.5,30.23,ESE,119,0.0,0.0,95,0.00,,,0.00,Wunderground v.1.15,2013-08-24 10:48:00,
2013-08-24 06:53:00,54.8,53.4,30.23,ESE,119,0.0,0.0,95,0.00,,,0.00,Wunderground v.1.15,2013-08-24 10:53:00,
2013-08-24 06:58:00,54.9,53.5,30.23,ESE,119,0.0,0.0,95,0.00,,,0.00,Wunderground v.1.15,2013-08-24 10:58:00,
2013-08-24 07:04:00,54.9,53.5,30.23,ESE,119,0.0,0.0,95,0.00,,,0.00,Wunderground v.1.15,2013-08-24 11:04:00,
2013-08-24 07:09:00,54.9,53.5,30.23,ESE,119,0.0,0.0,95,0.00,,,0.00,Wunderground v.1.15,2013-08-24 11:09:00,
2013-08-24 07:14:00,54.9,53.5,30.23,ESE,119,0.0,0.0,95,0.00,,,0.00,Wunderground v.1.15,2013-08-24 11:14:00,
2013-08-24 07:19:00,55.0,53.9,30.24,ESE,119,0.0,0.0,96,0.00,,,0.00,Wunderground v.1.15,2013-08-24 11:19:00,
2013-08-24 07:24:00,55.1,54.0,30.24,ESE,119,0.0,0.0,96,0.00,,,0.00,Wunderground v.1.15,2013-08-24 11:24:00,
2013-08-24 07:29:00,55.3,54.2,30.24,ESE,119,0.0,0.0,96,0.00,,,0.00,Wunderground v.1.15,2013-08-24 11:29:00,
2013-08-24 07:34:00,55.5,54.4,30.25,ESE,119,0.0,0.0,96,0.00,,,0.00,Wunderground v.1.15,2013-08-24 11:34:00,
2013-08-24 07:40:00,55.9,54.8,30.25,ESE,119,0.0,0.0,96,0.00,,,0.00,Wunderground v.1.15,2013-08-24 11:40:00,
2013-08-24 07:45:00,56.1,55.0,30.25,ESE,119,0.0,0.0,96,0.00,,,0.00,Wunderground v.1.15,2013-08-24 11:45:00,
2013-08-24 07:50:00,56.4,55.3,30.25,ESE,119,0.0,0.0,96,0.00,,,0.00,Wunderground v.1.15,2013-08-24 11:50:00,
2013-08-24 07:55:00,56.9,55.8,30.25,ESE,119,0.0,0.0,96,0.00,,,0.00,Wunderground v.1.15,2013-08-24 11:55:00,
2013-08-24 08:00:00,57.4,56.3,30.26,ESE,119,0.0,0.0,96,0.00,,,0.00,Wunderground v.1.15,2013-08-24 12:00:00,
2013-08-24 08:06:00,58.3,57.5,30.26,ESE,119,0.0,0.0,97,0.00,,,0.00,Wunderground v.1.15,2013-08-24 12:06:00,
2013-08-24 08:11:00,59.1,58.0,30.26,ESE,119,0.0,0.0,96,0.00,,,0.00,Wunderground v.1.15,2013-08-24 12:11:00,
2013-08-24 08:17:00,60.0,58.6,30.26,ESE,119,0.0,0.0,95,0.00,,,0.00,Wunderground v.1.15,2013-08-24 12:17:00,
2013-08-24 08:22:00,60.9,58.3,30.26,ESE,113,0.0,1.0,91,0.00,,,0.00,Wunderground v.1.15,2013-08-24 12:22:00,
2013-08-24 08:27:00,61.9,58.0,30.26,SE,126,0.0,1.0,87,0.00,,,0.00,Wunderground v.1.15,2013-08-24 12:27:00,
2013-08-24 08:32:00,62.9,58.0,30.26,NW,325,0.0,0.0,84,0.00,,,0.00,Wunderground v.1.15,2013-08-24 12:32:00,
2013-08-24 08:37:00,63.8,58.5,30.27,SE,136,0.0,0.0,83,0.00,,,0.00,Wunderground v.1.15,2013-08-24 12:37:00,
2013-08-24 08:42:00,64.6,59.0,30.26,NE,37,0.0,0.0,82,0.00,,,0.00,Wunderground v.1.15,2013-08-24 12:42:00,
2013-08-24 08:48:00,65.7,59.0,30.27,ESE,114,0.0,1.0,79,0.00,,,0.00,Wunderground v.1.15,2013-08-24 12:48:00,
2013-08-24 08:53:00,66.2,59.1,30.27,ESE,114,0.0,0.0,78,0.00,,,0.00,Wunderground v.1.15,2013-08-24 12:53:00,
2013-08-24 08:59:00,66.9,59.5,30.27,East,84,0.0,2.0,77,0.00,,,0.00,Wunderground v.1.15,2013-08-24 12:59:00,
2013-08-24 09:04:00,67.4,59.6,30.27,ESE,111,0.0,1.0,76,0.00,,,0.00,Wunderground v.1.15,2013-08-24 13:04:00,
2013-08-24 09:09:00,67.8,59.6,30.27,East,90,0.0,1.0,75,0.00,,,0.00,Wunderground v.1.15,2013-08-24 13:09:00,
2013-08-24 09:15:00,68.3,60.1,30.28,South,176,0.0,1.0,75,0.00,,,0.00,Wunderground v.1.15,2013-08-24 13:15:00,
2013-08-24 09:20:00,68.7,60.1,30.27,SE,130,0.0,0.0,74,0.00,,,0.00,Wunderground v.1.15,2013-08-24 13:20:00,
2013-08-24 09:25:00,69.1,60.1,30.28,SSE,155,1.0,1.0,73,0.00,,,0.00,Wunderground v.1.15,2013-08-24 13:25:00,
2013-08-24 09:30:00,69.6,60.6,30.28,SE,143,1.0,1.0,73,0.00,,,0.00,Wunderground v.1.15,2013-08-24 13:30:00,
2013-08-24 09:35:00,70.0,60.2,30.28,SE,127,0.0,1.0,71,0.00,,,0.00,Wunderground v.1.15,2013-08-24 13:35:00,
2013-08-24 09:40:00,70.5,61.0,30.28,SSE,152,0.0,0.0,72,0.00,,,0.00,Wunderground v.1.15,2013-08-24 13:40:00,
2013-08-24 09:45:00,71.0,61.1,30.28,SSE,152,0.0,2.0,71,0.00,,,0.00,Wunderground v.1.15,2013-08-24 13:45:00,
2013-08-24 09:51:00,71.2,60.5,30.28,ESE,122,0.0,1.0,69,0.00,,,0.00,Wunderground v.1.15,2013-08-24 13:51:00,
2013-08-24 09:56:00,71.4,60.3,30.28,ESE,122,0.0,1.0,68,0.00,,,0.00,Wunderground v.1.15,2013-08-24 13:56:00,
2013-08-24 10:01:00,71.9,59.9,30.28,NNE,18,0.0,0.0,66,0.00,,,0.00,Wunderground v.1.15,2013-08-24 14:01:00,
2013-08-24 10:07:00,72.0,60.4,30.28,ENE,67,0.0,2.0,67,0.00,,,0.00,Wunderground v.1.15,2013-08-24 14:07:00,
2013-08-24 10:12:00,72.4,60.8,30.28,SE,135,0.0,1.0,67,0.00,,,0.00,Wunderground v.1.15,2013-08-24 14:12:00,
2013-08-24 10:17:00,72.4,60.0,30.29,WSW,239,0.0,1.0,65,0.00,,,0.00,Wunderground v.1.15,2013-08-24 14:17:00,
2013-08-24 10:22:00,72.6,59.7,30.29,SE,145,0.0,0.0,64,0.00,,,0.00,Wunderground v.1.15,2013-08-24 14:22:00,
2013-08-24 10:28:00,73.0,61.4,30.29,SSE,148,0.0,1.0,67,0.00,,,0.00,Wunderground v.1.15,2013-08-24 14:28:00,
2013-08-24 10:33:00,73.4,62.2,30.29,SE,136,0.0,1.0,68,0.00,,,0.00,Wunderground v.1.15,2013-08-24 14:33:00,
2013-08-24 10:38:00,73.8,60.4,30.29,NNE,32,0.0,3.0,63,0.00,,,0.00,Wunderground v.1.15,2013-08-24 14:38:00,
2013-08-24 10:43:00,73.4,60.0,30.29,South,190,1.0,2.0,63,0.00,,,0.00,Wunderground v.1.15,2013-08-24 14:43:00,
2013-08-24 10:49:00,73.6,62.4,30.29,SE,130,1.0,3.0,68,0.00,,,0.00,Wunderground v.1.15,2013-08-24 14:49:00,
2013-08-24 10:54:00,73.8,60.4,30.29,SSW,196,1.0,3.0,63,0.00,,,0.00,Wunderground v.1.15,2013-08-24 14:54:00,
2013-08-24 10:59:00,73.8,62.2,30.29,SE,126,1.0,3.0,67,0.00,,,0.00,Wunderground v.1.15,2013-08-24 14:59:00,
2013-08-24 11:04:00,74.1,61.1,30.29,South,188,1.0,2.0,64,0.00,,,0.00,Wunderground v.1.15,2013-08-24 15:04:00,
2013-08-24 11:10:00,74.2,62.5,30.29,SSE,159,1.0,1.0,67,0.00,,,0.00,Wunderground v.1.15,2013-08-24 15:10:00,
2013-08-24 11:15:00,74.5,62.4,30.29,ESE,119,0.0,1.0,66,0.00,,,0.00,Wunderground v.1.15,2013-08-24 15:15:00,
2013-08-24 11:20:00,74.7,62.6,30.29,ENE,74,0.0,1.0,66,0.00,,,0.00,Wunderground v.1.15,2013-08-24 15:20:00,
2013-08-24 11:26:00,74.8,61.8,30.28,SE,146,1.0,4.0,64,0.00,,,0.00,Wunderground v.1.15,2013-08-24 15:26:00,
2013-08-24 11:31:00,74.8,62.7,30.28,East,101,1.0,1.0,66,0.00,,,0.00,Wunderground v.1.15,2013-08-24 15:31:00,
2013-08-24 11:37:00,75.1,63.0,30.28,SE,130,1.0,1.0,66,0.00,,,0.00,Wunderground v.1.15,2013-08-24 15:37:00,
2013-08-24 11:42:00,75.5,62.5,30.28,SE,132,0.0,1.0,64,0.00,,,0.00,Wunderground v.1.15,2013-08-24 15:42:00,
2013-08-24 11:47:00,75.7,63.1,30.28,SE,140,1.0,1.0,65,0.00,,,0.00,Wunderground v.1.15,2013-08-24 15:47:00,
2013-08-24 11:52:00,76.0,63.8,30.28,WSW,245,1.0,3.0,66,0.00,,,0.00,Wunderground v.1.15,2013-08-24 15:52:00,
2013-08-24 11:57:00,76.1,63.0,30.28,SE,137,1.0,3.0,64,0.00,,,0.00,Wunderground v.1.15,2013-08-24 15:57:00,
2013-08-24 12:03:00,76.2,62.7,30.28,SSE,153,1.0,4.0,63,0.00,,,0.00,Wunderground v.1.15,2013-08-24 16:03:00,
2013-08-24 12:08:00,76.3,63.7,30.28,ESE,121,2.0,4.0,65,0.00,,,0.00,Wunderground v.1.15,2013-08-24 16:08:00,
2013-08-24 12:13:00,76.5,63.0,30.28,NE,40,1.0,2.0,63,0.00,,,0.00,Wunderground v.1.15,2013-08-24 16:13:00,
2013-08-24 12:19:00,76.3,63.2,30.27,NE,43,1.0,2.0,64,0.00,,,0.00,Wunderground v.1.15,2013-08-24 16:19:00,
2013-08-24 12:24:00,75.9,63.7,30.27,ESE,117,0.0,2.0,66,0.00,,,0.00,Wunderground v.1.15,2013-08-24 16:24:00,
2013-08-24 12:29:00,76.0,62.5,30.28,SE,135,0.0,2.0,63,0.00,,,0.00,Wunderground v.1.15,2013-08-24 16:29:00,
2013-08-24 12:34:00,76.3,63.2,30.27,SSW,209,1.0,4.0,64,0.00,,,0.00,Wunderground v.1.15,2013-08-24 16:34:00,
2013-08-24 12:39:00,76.9,64.7,30.27,ESE,120,1.0,4.0,66,0.00,,,0.00,Wunderground v.1.15,2013-08-24 16:39:00,
2013-08-24 12:44:00,77.4,62.9,30.27,NE,44,1.0,2.0,61,0.00,,,0.00,Wunderground v.1.15,2013-08-24 16:44:00,
2013-08-24 12:50:00,77.9,65.6,30.27,NE,41,0.0,2.0,66,0.00,,,0.00,Wunderground v.1.15,2013-08-24 16:50:00,
2013-08-24 12:55:00,78.2,64.1,30.27,NE,56,1.0,2.0,62,0.00,,,0.00,Wunderground v.1.15,2013-08-24 16:55:00,
2013-08-24 13:00:00,78.3,64.2,30.27,ENE,61,1.0,2.0,62,0.00,,,0.00,Wunderground v.1.15,2013-08-24 17:00:00,
2013-08-24 13:06:00,78.3,62.3,30.27,ESE,117,1.0,3.0,58,0.00,,,0.00,Wunderground v.1.15,2013-08-24 17:06:00,
2013-08-24 13:11:00,78.0,63.0,30.27,ESE,118,1.0,1.0,60,0.00,,,0.00,Wunderground v.1.15,2013-08-24 17:11:00,
2013-08-24 13:17:00,77.4,62.4,30.27,ESE,118,0.0,1.0,60,0.00,,,0.00,Wunderground v.1.15,2013-08-24 17:17:00,
2013-08-24 13:22:00,77.6,64.5,30.27,NE,34,0.0,2.0,64,0.00,,,0.00,Wunderground v.1.15,2013-08-24 17:22:00,
2013-08-24 13:27:00,77.5,62.5,30.26,SSE,153,1.0,4.0,60,0.00,,,0.00,Wunderground v.1.15,2013-08-24 17:27:00,
2013-08-24 13:32:00,76.9,61.0,30.26,SSE,150,1.0,1.0,58,0.00,,,0.00,Wunderground v.1.15,2013-08-24 17:32:00,
2013-08-24 13:37:00,76.7,61.3,30.26,SSE,154,0.0,1.0,59,0.00,,,0.00,Wunderground v.1.15,2013-08-24 17:37:00,
2013-08-24 13:42:00,77.1,61.7,30.26,SE,139,0.0,3.0,59,0.00,,,0.00,Wunderground v.1.15,2013-08-24 17:42:00,
2013-08-24 13:47:00,77.1,61.2,30.26,SSE,163,0.0,3.0,58,0.00,,,0.00,Wunderground v.1.15,2013-08-24 17:47:00,
2013-08-24 13:53:00,76.9,62.9,30.26,SE,136,0.0,0.0,62,0.00,,,0.00,Wunderground v.1.15,2013-08-24 17:53:00,
2013-08-24 13:58:00,77.2,62.7,30.26,SE,136,0.0,0.0,61,0.00,,,0.00,Wunderground v.1.15,2013-08-24 17:58:00,
2013-08-24 14:03:00,77.9,63.4,30.26,SSE,167,0.0,0.0,61,0.00,,,0.00,Wunderground v.1.15,2013-08-24 18:03:00,
2013-08-24 14:08:00,78.6,61.1,30.26,North,349,0.0,1.0,55,0.00,,,0.00,Wunderground v.1.15,2013-08-24 18:08:00,
2013-08-24 14:14:00,79.3,60.7,30.26,ESE,110,1.0,2.0,53,0.00,,,0.00,Wunderground v.1.15,2013-08-24 18:14:00,
2013-08-24 14:19:00,79.6,62.0,30.26,SE,142,1.0,2.0,55,0.00,,,0.00,Wunderground v.1.15,2013-08-24 18:19:00,
2013-08-24 14:24:00,79.9,61.8,30.26,South,173,1.0,4.0,54,0.00,,,0.00,Wunderground v.1.15,2013-08-24 18:24:00,
2013-08-24 14:30:00,79.9,61.2,30.26,SE,139,1.0,1.0,53,0.00,,,0.00,Wunderground v.1.15,2013-08-24 18:30:00,
2013-08-24 14:35:00,79.8,61.1,30.26,ESE,113,2.0,3.0,53,0.00,,,0.00,Wunderground v.1.15,2013-08-24 18:35:00,
2013-08-24 14:40:00,79.7,60.0,30.26,South,170,1.0,1.0,51,0.00,,,0.00,Wunderground v.1.15,2013-08-24 18:40:00,
2013-08-24 14:46:00,79.9,61.2,30.26,SE,136,0.0,2.0,53,0.00,,,0.00,Wunderground v.1.15,2013-08-24 18:46:00,
2013-08-24 14:51:00,79.9,60.7,30.25,WNW,300,0.0,0.0,52,0.00,,,0.00,Wunderground v.1.15,2013-08-24 18:51:00,
2013-08-24 14:57:00,79.5,59.8,30.25,SE,140,1.0,3.0,51,0.00,,,0.00,Wunderground v.1.15,2013-08-24 18:57:00,
2013-08-24 15:02:00,79.3,59.6,30.25,North,9,1.0,1.0,51,0.00,,,0.00,Wunderground v.1.15,2013-08-24 19:02:00,
2013-08-24 15:08:00,79.0,62.0,30.25,NE,38,0.0,2.0,56,0.00,,,0.00,Wunderground v.1.15,2013-08-24 19:08:00,
2013-08-24 15:13:00,78.5,59.9,30.25,NNE,28,0.0,0.0,53,0.00,,,0.00,Wunderground v.1.15,2013-08-24 19:13:00,
2013-08-24 15:18:00,78.3,58.7,30.25,SE,138,1.0,4.0,51,0.00,,,0.00,Wunderground v.1.15,2013-08-24 19:18:00,
2013-08-24 15:23:00,78.4,59.3,30.25,West,259,1.0,3.0,52,0.00,,,0.00,Wunderground v.1.15,2013-08-24 19:23:00,
2013-08-24 15:29:00,78.5,59.4,30.25,ENE,64,1.0,5.0,52,0.00,,,0.00,Wunderground v.1.15,2013-08-24 19:29:00,
2013-08-24 15:34:00,78.5,58.9,30.25,SSE,166,1.0,3.0,51,0.00,,,0.00,Wunderground v.1.15,2013-08-24 19:34:00,
2013-08-24 15:39:00,78.4,59.3,30.25,East,96,1.0,3.0,52,0.00,,,0.00,Wunderground v.1.15,2013-08-24 19:39:00,
2013-08-24 15:44:00,78.3,60.3,30.25,SE,140,0.0,1.0,54,0.00,,,0.00,Wunderground v.1.15,2013-08-24 19:44:00,
2013-08-24 15:50:00,77.9,60.4,30.25,SE,140,0.0,0.0,55,0.00,,,0.00,Wunderground v.1.15,2013-08-24 19:50:00,
2013-08-24 15:55:00,77.4,60.0,30.25,SSE,155,0.0,1.0,55,0.00,,,0.00,Wunderground v.1.15,2013-08-24 19:55:00,
2013-08-24 16:00:00,77.0,60.1,30.25,SSE,155,0.0,0.0,56,0.00,,,0.00,Wunderground v.1.15,2013-08-24 20:00:00,
2013-08-24 16:06:00,76.8,58.4,30.25,SE,146,0.0,0.0,53,0.00,,,0.00,Wunderground v.1.15,2013-08-24 20:06:00,
2013-08-24 16:12:00,77.2,60.8,30.25,East,85,0.0,0.0,57,0.00,,,0.00,Wunderground v.1.15,2013-08-24 20:12:00,
2013-08-24 16:17:00,77.5,60.1,30.25,SE,145,1.0,3.0,55,0.00,,,0.00,Wunderground v.1.15,2013-08-24 20:17:00,
2013-08-24 16:22:00,77.0,61.1,30.25,SE,145,0.0,0.0,58,0.00,,,0.00,Wunderground v.1.15,2013-08-24 20:22:00,
2013-08-24 16:28:00,76.0,60.6,30.25,SE,145,0.0,0.0,59,0.00,,,0.00,Wunderground v.1.15,2013-08-24 20:28:00,
2013-08-24 16:33:00,75.2,60.4,30.25,SE,145,0.0,0.0,60,0.00,,,0.00,Wunderground v.1.15,2013-08-24 20:33:00,
2013-08-24 16:38:00,74.5,63.7,30.25,SE,145,0.0,0.0,69,0.00,,,0.00,Wunderground v.1.15,2013-08-24 20:38:00,
2013-08-24 16:44:00,73.4,64.2,30.25,SE,145,0.0,0.0,73,0.00,,,0.00,Wunderground v.1.15,2013-08-24 20:44:00,
2013-08-24 16:49:00,72.7,62.8,30.25,SE,145,0.0,0.0,71,0.00,,,0.00,Wunderground v.1.15,2013-08-24 20:49:00,
2013-08-24 16:54:00,72.1,64.1,30.24,SE,145,0.0,0.0,76,0.00,,,0.00,Wunderground v.1.15,2013-08-24 20:54:00,
2013-08-24 16:59:00,71.7,63.7,30.24,SE,145,0.0,0.0,76,0.00,,,0.00,Wunderground v.1.15,2013-08-24 20:59:00,
2013-08-24 17:05:00,71.2,61.7,30.24,SE,145,0.0,0.0,72,0.00,,,0.00,Wunderground v.1.15,2013-08-24 21:05:00,
2013-08-24 17:10:00,71.3,63.7,30.25,SE,145,0.0,0.0,77,0.00,,,0.00,Wunderground v.1.15,2013-08-24 21:10:00,
2013-08-24 17:15:00,71.5,62.8,30.25,SE,145,0.0,0.0,74,0.00,,,0.00,Wunderground v.1.15,2013-08-24 21:15:00,
2013-08-24 17:20:00,71.7,62.6,30.25,SE,145,0.0,0.0,73,0.00,,,0.00,Wunderground v.1.15,2013-08-24 21:20:00,
2013-08-24 17:26:00,72.0,62.9,30.25,SE,145,0.0,0.0,73,0.00,,,0.00,Wunderground v.1.15,2013-08-24 21:26:00,
2013-08-24 17:31:00,72.0,62.9,30.25,SE,145,0.0,0.0,73,0.00,,,0.00,Wunderground v.1.15,2013-08-24 21:31:00,
2013-08-24 17:36:00,72.0,60.9,30.25,SE,145,0.0,0.0,68,0.00,,,0.00,Wunderground v.1.15,2013-08-24 21:36:00,
2013-08-24 17:42:00,73.2,62.4,30.25,South,188,0.0,1.0,69,0.00,,,0.00,Wunderground v.1.15,2013-08-24 21:42:00,
2013-08-24 17:47:00,73.7,59.4,30.25,South,190,0.0,2.0,61,0.00,,,0.00,Wunderground v.1.15,2013-08-24 21:47:00,
2013-08-24 17:52:00,74.8,62.7,30.25,South,190,0.0,0.0,66,0.00,,,0.00,Wunderground v.1.15,2013-08-24 21:52:00,
2013-08-24 17:58:00,74.4,61.4,30.25,South,190,0.0,0.0,64,0.00,,,0.00,Wunderground v.1.15,2013-08-24 21:58:00,
2013-08-24 18:03:00,74.5,62.8,30.25,SSW,200,0.0,0.0,67,0.00,,,0.00,Wunderground v.1.15,2013-08-24 22:03:00,
2013-08-24 18:08:00,74.3,64.3,30.25,SSW,200,0.0,0.0,71,0.00,,,0.00,Wunderground v.1.15,2013-08-24 22:08:00,
2013-08-24 18:13:00,73.7,64.1,30.25,SSW,200,0.0,0.0,72,0.00,,,0.00,Wunderground v.1.15,2013-08-24 22:13:00,
2013-08-24 18:19:00,72.9,64.1,30.25,SSW,200,0.0,0.0,74,0.00,,,0.00,Wunderground v.1.15,2013-08-24 22:19:00,
2013-08-24 18:24:00,72.1,64.1,30.25,SSW,200,0.0,0.0,76,0.00,,,0.00,Wunderground v.1.15,2013-08-24 22:24:00,
2013-08-24 18:29:00,71.3,63.7,30.25,SSW,200,0.0,0.0,77,0.00,,,0.00,Wunderground v.1.15,2013-08-24 22:29:00,
2013-08-24 18:35:00,70.4,62.8,30.25,SSW,200,0.0,0.0,77,0.00,,,0.00,Wunderground v.1.15,2013-08-24 22:35:00,
2013-08-24 18:40:00,70.0,63.5,30.25,SSW,200,0.0,0.0,80,0.00,,,0.00,Wunderground v.1.15,2013-08-24 22:40:00,
2013-08-24 18:45:00,69.5,63.1,30.25,SSW,200,0.0,0.0,80,0.00,,,0.00,Wunderground v.1.15,2013-08-24 22:45:00,
2013-08-24 18:51:00,69.1,63.4,30.25,SSW,200,0.0,0.0,82,0.00,,,0.00,Wunderground v.1.15,2013-08-24 22:51:00,
2013-08-24 18:56:00,68.8,63.1,30.25,SSW,200,0.0,0.0,82,0.00,,,0.00,Wunderground v.1.15,2013-08-24 22:56:00,
2013-08-24 19:02:00,68.6,63.6,30.25,SSW,200,0.0,0.0,84,0.00,,,0.00,Wunderground v.1.15,2013-08-24 23:02:00,
2013-08-24 19:07:00,68.6,64.2,30.25,SSW,200,0.0,0.0,86,0.00,,,0.00,Wunderground v.1.15,2013-08-24 23:07:00,
2013-08-24 19:13:00,68.4,63.7,30.25,SSW,200,0.0,0.0,85,0.00,,,0.00,Wunderground v.1.15,2013-08-24 23:13:00,
2013-08-24 19:18:00,68.3,63.6,30.25,SSW,200,0.0,0.0,85,0.00,,,0.00,Wunderground v.1.15,2013-08-24 23:18:00,
2013-08-24 19:23:00,68.1,63.4,30.25,SSW,200,0.0,0.0,85,0.00,,,0.00,Wunderground v.1.15,2013-08-24 23:23:00,
2013-08-24 19:28:00,68.1,63.8,30.25,SSW,200,0.0,0.0,86,0.00,,,0.00,Wunderground v.1.15,2013-08-24 23:28:00,
2013-08-24 19:34:00,67.9,63.6,30.25,SSW,200,0.0,0.0,86,0.00,,,0.00,Wunderground v.1.15,2013-08-24 23:34:00,
2013-08-24 19:39:00,67.8,63.8,30.25,SSW,200,0.0,0.0,87,0.00,,,0.00,Wunderground v.1.15,2013-08-24 23:39:00,
2013-08-24 19:44:00,67.7,64.0,30.25,SSW,200,0.0,0.0,88,0.00,,,0.00,Wunderground v.1.15,2013-08-24 23:44:00,
2013-08-24 19:49:00,67.5,63.5,30.25,SSW,200,0.0,0.0,87,0.00,,,0.00,Wunderground v.1.15,2013-08-24 23:49:00,
2013-08-24 19:54:00,67.4,63.4,30.26,SSW,200,0.0,0.0,87,0.00,,,0.00,Wunderground v.1.15,2013-08-24 23:54:00,
2013-08-24 20:00:00,67.3,63.6,30.26,SSW,200,0.0,0.0,88,0.00,,,0.00,Wunderground v.1.15,2013-08-25 00:00:00,
2013-08-24 20:06:00,67.0,63.0,30.26,SSW,200,0.0,0.0,87,0.00,,,0.00,Wunderground v.1.15,2013-08-25 00:06:00,
2013-08-24 20:11:00,66.7,62.7,30.26,SSW,200,0.0,0.0,87,0.00,,,0.00,Wunderground v.1.15,2013-08-25 00:11:00,
2013-08-24 20:16:00,66.5,62.5,30.26,SSW,200,0.0,0.0,87,0.00,,,0.00,Wunderground v.1.15,2013-08-25 00:16:00,
2013-08-24 20:21:00,66.2,62.2,30.27,SSW,200,0.0,0.0,87,0.00,,,0.00,Wunderground v.1.15,2013-08-25 00:21:00,
2013-08-24 20:27:00,65.9,61.9,30.27,SSW,200,0.0,0.0,87,0.00,,,0.00,Wunderground v.1.15,2013-08-25 00:27:00,
2013-08-24 20:32:00,65.7,62.0,30.27,SSW,200,0.0,0.0,88,0.00,,,0.00,Wunderground v.1.15,2013-08-25 00:32:00,
2013-08-24 20:37:00,65.5,61.9,30.27,SSW,200,0.0,0.0,88,0.00,,,0.00,Wunderground v.1.15,2013-08-25 00:37:00,
2013-08-24 20:43:00,65.3,61.7,30.27,SSW,200,0.0,0.0,88,0.00,,,0.00,Wunderground v.1.15,2013-08-25 00:43:00,
2013-08-24 20:48:00,65.0,61.4,30.27,SSW,200,0.0,0.0,88,0.00,,,0.00,Wunderground v.1.15,2013-08-25 00:48:00,
2013-08-24 20:53:00,64.9,60.9,30.28,SSW,200,0.0,0.0,87,0.00,,,0.00,Wunderground v.1.15,2013-08-25 00:53:00,
2013-08-24 20:58:00,64.7,61.1,30.27,SSW,200,0.0,0.0,88,0.00,,,0.00,Wunderground v.1.15,2013-08-25 00:58:00,
2013-08-24 21:04:00,64.5,61.2,30.27,SSW,200,0.0,0.0,89,0.00,,,0.00,Wunderground v.1.15,2013-08-25 01:04:00,
2013-08-24 21:09:00,64.3,61.0,30.27,SSW,200,0.0,0.0,89,0.00,,,0.00,Wunderground v.1.15,2013-08-25 01:09:00,
2013-08-24 21:14:00,64.2,60.9,30.27,SSW,200,0.0,0.0,89,0.00,,,0.00,Wunderground v.1.15,2013-08-25 01:14:00,
2013-08-24 21:19:00,64.1,61.1,30.28,SSW,200,0.0,0.0,90,0.00,,,0.00,Wunderground v.1.15,2013-08-25 01:19:00,
2013-08-24 21:24:00,63.9,60.9,30.28,SSW,200,0.0,0.0,90,0.00,,,0.00,Wunderground v.1.15,2013-08-25 01:24:00,
2013-08-24 21:29:00,63.8,60.8,30.28,SSW,200,0.0,0.0,90,0.00,,,0.00,Wunderground v.1.15,2013-08-25 01:29:00,
2013-08-24 21:34:00,63.6,60.9,30.28,SSW,200,0.0,0.0,91,0.00,,,0.00,Wunderground v.1.15,2013-08-25 01:34:00,
2013-08-24 21:40:00,63.4,60.7,30.28,SSW,200,0.0,0.0,91,0.00,,,0.00,Wunderground v.1.15,2013-08-25 01:40:00,
2013-08-24 21:45:00,63.3,60.6,30.28,SSW,200,0.0,0.0,91,0.00,,,0.00,Wunderground v.1.15,2013-08-25 01:45:00,
2013-08-24 21:50:00,63.2,60.5,30.28,SSW,200,0.0,0.0,91,0.00,,,0.00,Wunderground v.1.15,2013-08-25 01:50:00,
2013-08-24 21:55:00,63.1,60.4,30.28,SSW,200,0.0,0.0,91,0.00,,,0.00,Wunderground v.1.15,2013-08-25 01:55:00,
2013-08-24 22:00:00,62.9,60.2,30.28,SSW,200,0.0,0.0,91,0.00,,,0.00,Wunderground v.1.15,2013-08-25 02:00:00,
2013-08-24 22:06:00,62.7,60.0,30.28,SSW,200,0.0,0.0,91,0.00,,,0.00,Wunderground v.1.15,2013-08-25 02:06:00,
2013-08-24 22:11:00,62.6,59.9,30.29,SSW,200,0.0,0.0,91,0.00,,,0.00,Wunderground v.1.15,2013-08-25 02:11:00,
2013-08-24 22:16:00,62.4,59.7,30.29,SSW,200,0.0,0.0,91,0.00,,,0.00,Wunderground v.1.15,2013-08-25 02:16:00,
2013-08-24 22:21:00,62.3,59.9,30.29,SSW,200,0.0,0.0,92,0.00,,,0.00,Wunderground v.1.15,2013-08-25 02:21:00,
2013-08-24 22:27:00,62.2,59.8,30.28,SSW,200,0.0,0.0,92,0.00,,,0.00,Wunderground v.1.15,2013-08-25 02:27:00,
2013-08-24 22:32:00,62.2,60.2,30.29,SSW,200,0.0,0.0,93,0.00,,,0.00,Wunderground v.1.15,2013-08-25 02:32:00,
2013-08-24 22:37:00,62.1,59.7,30.29,SSW,200,0.0,0.0,92,0.00,,,0.00,Wunderground v.1.15,2013-08-25 02:37:00,
2013-08-24 22:42:00,62.0,59.6,30.29,SSW,200,0.0,0.0,92,0.00,,,0.00,Wunderground v.1.15,2013-08-25 02:42:00,
2013-08-24 22:47:00,61.9,59.5,30.29,SSW,200,0.0,0.0,92,0.00,,,0.00,Wunderground v.1.15,2013-08-25 02:47:00,
2013-08-24 22:53:00,61.7,59.4,30.29,SSW,200,0.0,0.0,92,0.00,,,0.00,Wunderground v.1.15,2013-08-25 02:53:00,
2013-08-24 22:58:00,61.6,59.3,30.29,SSW,200,0.0,0.0,92,0.00,,,0.00,Wunderground v.1.15,2013-08-25 02:58:00,
2013-08-24 23:03:00,61.4,59.1,30.28,SSW,200,0.0,0.0,92,0.00,,,0.00,Wunderground v.1.15,2013-08-25 03:03:00,
2013-08-24 23:08:00,61.3,59.3,30.29,SSW,200,0.0,0.0,93,0.00,,,0.00,Wunderground v.1.15,2013-08-25 03:08:00,
2013-08-24 23:14:00,61.2,59.2,30.29,SSW,200,0.0,0.0,93,0.00,,,0.00,Wunderground v.1.15,2013-08-25 03:14:00,
2013-08-24 23:19:00,61.1,59.1,30.29,SSW,200,0.0,0.0,93,0.00,,,0.00,Wunderground v.1.15,2013-08-25 03:19:00,
2013-08-24 23:24:00,61.0,59.0,30.29,SSW,200,0.0,0.0,93,0.00,,,0.00,Wunderground v.1.15,2013-08-25 03:24:00,
2013-08-24 23:29:00,60.9,58.9,30.29,SSW,200,0.0,0.0,93,0.00,,,0.00,Wunderground v.1.15,2013-08-25 03:29:00,
2013-08-24 23:34:00,60.9,58.9,30.29,SSW,200,0.0,0.0,93,0.00,,,0.00,Wunderground v.1.15,2013-08-25 03:34:00,
2013-08-24 23:39:00,60.8,58.8,30.29,SSW,200,0.0,0.0,93,0.00,,,0.00,Wunderground v.1.15,2013-08-25 03:39:00,
2013-08-24 23:44:00,60.8,59.1,30.29,SSW,200,0.0,0.0,94,0.00,,,0.00,Wunderground v.1.15,2013-08-25 03:44:00,
2013-08-24 23:50:00,60.7,58.7,30.29,SSW,200,0.0,0.0,93,0.00,,,0.00,Wunderground v.1.15,2013-08-25 03:50:00,
2013-08-24 23:55:00,60.6,58.9,30.29,SSW,200,0.0,0.0,94,0.00,,,0.00,Wunderground v.1.15,2013-08-25 03:55:00,